[[{"header":{"parameterUnit":"m.s-1","parameterCategory":1,"la1":30.2991,"la2":30.254,"lo1":-89.0895,"lo2":-89.0444,"dy":0.0017,"dx":0.0017,"nx":28,"ny":28,"refTime":"2025-05-30T09:00:00:Z","depth":0,"parameterNumber":2,"parameterNumberName":"U-component_of_WINDS"},"data":[0,0,0,0,0,0,0,0,0,0,0,0,0,0,0,0,0,0,0,0,0,0,0,0,0,0,0,0,0,0,0,0,0,0,0,0,0,0,0,0,0,0,0,0,0,0,0,0,0,0,0,0,0,0,0,0,0,0,-1.6376,-1.6376,0,-1.638,-1.638,-1.6381,-1.6353,-1.6352,-1.6351,-1.6351,-1.6356,-1.6357,-1.6358,0,0,0,0,0,0,0,0,0,0,0,0,0,-1.6344,-1.6345,-1.6376,-1.6376,-1.6376,-1.638,-1.638,-1.6381,-1.6353,-1.6352,-1.6351,-1.635,-1.6356,-1.6357,-1.6358,0,0,0,0,0,0,0,0,0,0,0,0,0,-1.6354,-1.6345,-1.6376,-1.6363,-1.6362,-1.638,-1.638,-1.6381,-1.6353,-1.6352,-1.6351,-1.635,-1.6355,-1.6357,-1.6358,-1.639,0,0,-1.6362,-1.6363,0,0,0,0,0,0,0,0,-1.6354,-1.6355,-1.6365,-1.6364,-1.6362,-1.6365,-1.6371,-1.6384,-1.6354,-1.6356,-1.6351,-1.6349,-1.636,-1.6361,-1.6364,-1.639,-1.639,-1.6362,-1.6363,-1.6363,-1.6364,0,0,0,0,0,0,0,-1.6353,-1.6355,-1.6378,-1.6365,-1.6364,-1.6357,-1.6357,-1.6373,-1.6365,-1.6356,-1.6354,-1.6355,-1.6359,-1.6363,-1.6364,-1.639,-1.6362,-1.6363,-1.6364,-1.6365,-1.6443,-1.6444,0,0,0,0,0,0,-1.6354,-1.6355,-1.6378,-1.6378,-1.6355,-1.6358,-1.6359,-1.6365,-1.6365,-1.6363,-1.6356,-1.6354,-1.6361,-1.6363,-1.6364,-1.6402,-1.6363,-1.6365,-1.6365,-1.6442,-1.6443,-1.6445,0,0,0,0,0,0,-1.6353,-1.6356,-1.6377,-1.6366,-1.6368,-1.636,-1.6368,-1.6366,-1.637,-1.6364,-1.6363,-1.6362,-1.6361,-1.6362,-1.6384,-1.6402,-1.6365,-1.6366,-1.644,-1.6442,-1.6444,-1.6478,0,0,0,0,0,0,-1.6353,-1.6356,-1.6368,-1.6366,-1.6369,-1.6397,-1.6369,-1.6367,-1.6372,-1.6369,-1.6369,-1.6368,-1.636,-1.6382,-1.6385,-1.6403,-1.6368,-1.6439,-1.6441,-1.6443,-1.6475,-1.6481,-1.6486,0,0,0,0,0,-1.6352,-1.6378,-1.6369,-1.6372,-1.6383,-1.6398,-1.6399,-1.6389,-1.6374,-1.6386,-1.6382,-1.6368,-1.6399,-1.6384,-1.6388,-1.6406,-1.6437,-1.644,-1.6443,-1.6473,-1.648,-1.6486,0,0,0,0,0,0,-1.6382,-1.6377,-1.6367,-1.6393,-1.6396,-1.6393,-1.6408,-1.6396,-1.6404,-1.6401,-1.6387,-1.6388,-1.6411,-1.6411,-1.6394,-1.6437,-1.6416,-1.6419,-1.6437,-1.6444,-1.6449,-1.6449,-1.6369,0,0,0,0,0,-1.6392,-1.6404,-1.6399,-1.6422,-1.6424,-1.6416,-1.6422,-1.6413,-1.6416,-1.6417,-1.6415,-1.6418,-1.6429,-1.6436,-1.6445,-1.6475,-1.6475,-1.6489,-1.6494,-1.6499,-1.6502,-1.6519,-1.6525,-1.6454,-1.6454,-1.6454,0,0,-1.6412,-1.6411,-1.6419,-1.6428,-1.6429,-1.6442,-1.6417,-1.6432,-1.6441,-1.6419,-1.644,-1.6438,-1.6441,-1.6466,-1.6478,-1.6467,-1.6522,-1.6502,-1.6506,-1.6507,-1.6522,-1.6529,-1.6535,-1.6456,-1.6456,-1.6456,0,0,-1.6456,-1.6456,-1.6476,-1.6477,-1.6479,-1.6474,-1.6478,-1.6477,-1.6475,-1.6495,-1.6479,-1.649,-1.6509,-1.6511,-1.6515,-1.656,-1.6548,-1.6563,-1.6591,-1.6607,-1.6613,-1.6618,-1.6635,-1.6641,-1.6567,-1.6567,-1.6567,0,-1.6481,-1.65,-1.6487,-1.6503,-1.6508,-1.6488,-1.6509,-1.6511,-1.6516,-1.652,-1.6507,-1.653,-1.653,-1.6557,-1.6568,-1.6571,-1.6577,-1.6564,-1.6613,-1.6618,-1.6622,-1.6639,-1.6645,-1.6569,-1.6569,-1.6569,-1.6568,0,-1.6531,-1.6544,-1.656,-1.6566,-1.6572,-1.659,-1.6581,-1.6589,-1.658,-1.6576,-1.6597,-1.6596,-1.6605,-1.6611,-1.6602,-1.6636,-1.663,-1.6615,-1.6593,-1.6631,-1.6646,-1.6652,-1.6572,-1.6571,-1.657,-1.657,0,0,-1.6595,-1.6593,-1.6599,-1.6602,-1.6603,-1.6613,-1.663,-1.6639,-1.6647,-1.665,-1.6665,-1.6681,-1.6668,-1.6672,-1.6664,-1.6678,-1.6715,-1.6662,-1.6661,-1.6673,-1.6753,-1.6765,-1.6773,-1.6706,-1.6707,-1.6708,-1.6754,0,-1.6639,-1.6669,-1.6658,-1.6688,-1.6701,-1.6682,-1.6697,-1.6699,-1.6696,-1.6706,-1.6702,-1.6714,-1.6695,-1.6698,-1.6711,-1.6707,-1.6731,-1.6704,-1.672,-1.6721,-1.6722,-1.678,-1.6793,-1.6836,-1.6759,-1.676,-1.6761,0,-1.6694,-1.6701,-1.6732,-1.6731,-1.6736,-1.675,-1.6758,-1.6767,-1.677,-1.6766,-1.6771,-1.676,-1.6777,-1.6754,-1.6778,-1.676,-1.6766,-1.6766,-1.6767,-1.6769,-1.6744,-1.6785,-1.6849,-1.6856,-1.677,-1.6769,-1.6768,0,-1.6739,-1.6756,-1.6777,-1.678,-1.6778,-1.6789,-1.6789,-1.679,-1.6796,-1.6803,-1.6807,-1.6815,-1.682,-1.6827,-1.6818,-1.6802,-1.6844,-1.682,-1.6842,-1.6843,-1.6853,-1.6853,-1.6921,-1.6855,-1.6855,-1.6855,-1.6854,0,-1.679,-1.6811,-1.6797,-1.6811,-1.6833,-1.682,-1.6843,-1.6841,-1.6842,-1.6855,-1.6839,-1.6851,-1.6838,-1.685,-1.6843,-1.6864,-1.6866,-1.6865,-1.6863,-1.6867,-1.6867,-1.6872,-1.6869,-1.6856,-1.6856,-1.6856,-1.6855,0,-1.6845,-1.6837,-1.6859,-1.6856,-1.6856,-1.6873,-1.687,-1.6883,-1.6878,-1.6894,-1.6897,-1.689,-1.6902,-1.6894,-1.6906,-1.6902,-1.6931,-1.6924,-1.693,-1.6929,-1.6952,-1.695,-1.7026,-1.7036,-1.6962,-1.6963,-1.6964,0,-1.6879,-1.6894,-1.6893,-1.69,-1.6901,-1.6913,-1.692,-1.6907,-1.6915,-1.6918,-1.6931,-1.6942,-1.695,-1.6971,-1.6967,-1.6977,-1.6971,-1.6997,-1.6972,-1.6976,-1.6973,-1.6973,-1.6975,-1.7002,-1.7003,-1.7004,-1.7004,0,-1.694,-1.6935,-1.6944,-1.6953,-1.696,-1.6966,-1.6971,-1.6978,-1.6966,-1.6975,-1.6987,-1.6994,-1.7007,-1.7018,-1.7026,-1.7026,-1.7014,-1.7012,-1.7018,-1.7023,-1.7026,-1.7026,-1.6945,-1.701,-1.701,-1.7009,-1.7009,-1.7009,-1.6986,-1.6999,-1.7,-1.7012,-1.7014,-1.7018,-1.703,-1.7027,-1.7037,-1.7046,-1.7038,-1.7054,-1.7056,-1.7065,-1.7067,-1.7079,-1.7069,-1.7077,-1.7079,-1.7082,-1.7086,-1.7023,-1.7081,-1.708,-1.708,-1.708,-1.708,0,-1.7048,-1.7047,-1.7058,-1.7065,-1.7074,-1.706,-1.7064,-1.7073,-1.7087,-1.7089,-1.7098,-1.7113,-1.7124,-1.712,-1.713,-1.7141,-1.7135,-1.7144,-1.7144,-1.7145,-1.7094,-1.7089,-1.7148,-1.7148,-1.7148,-1.7148,-1.7148,-1.7148,-1.7081,-1.7102,-1.7098,-1.712,-1.712,-1.7135,-1.7139,-1.7143,-1.7145,-1.7163,-1.7172,-1.7169,-1.717,-1.718,-1.719,-1.7188,-1.7193,-1.7205,-1.7201,-1.7155,-1.7148,-1.7141,-1.7136,-1.7205,-1.7205,-1.7251,-1.7251,-1.7252]},{"header":{"parameterUnit":"m.s-1","parameterCategory":1,"la1":30.2991,"la2":30.254,"lo1":-89.0895,"lo2":-89.0444,"dy":0.0017,"dx":0.0017,"nx":28,"ny":28,"refTime":"2025-05-30T09:00:00:Z","depth":0,"parameterNumber":3,"parameterNumberName":"V-component_of_WINDS"},"data":[0,0,0,0,0,0,0,0,0,0,0,0,0,0,0,0,0,0,0,0,0,0,0,0,0,0,0,0,0,0,0,0,0,0,0,0,0,0,0,0,0,0,0,0,0,0,0,0,0,0,0,0,0,0,0,0,0,0,-3.9526,-3.9526,0,-3.9537,-3.9538,-3.9538,-3.9491,-3.9489,-3.9488,-3.9487,-3.9496,-3.9498,-3.9499,0,0,0,0,0,0,0,0,0,0,0,0,0,-3.9463,-3.9464,-3.9526,-3.9526,-3.9526,-3.9537,-3.9538,-3.9538,-3.9491,-3.9489,-3.9488,-3.9486,-3.9496,-3.9497,-3.9499,0,0,0,0,0,0,0,0,0,0,0,0,0,-3.9484,-3.9465,-3.9526,-3.9504,-3.9503,-3.9537,-3.9538,-3.9538,-3.9491,-3.9489,-3.9487,-3.9485,-3.9495,-3.9497,-3.95,-3.9555,0,0,-3.9507,-3.9508,0,0,0,0,0,0,0,0,-3.9483,-3.9486,-3.9507,-3.9506,-3.9504,-3.9511,-3.9519,-3.9543,-3.9492,-3.9496,-3.9487,-3.9484,-3.9502,-3.9504,-3.9511,-3.9555,-3.9556,-3.9507,-3.9508,-3.9509,-3.951,0,0,0,0,0,0,0,-3.9481,-3.9485,-3.953,-3.9508,-3.9506,-3.9494,-3.9494,-3.9523,-3.951,-3.9495,-3.9492,-3.9494,-3.9501,-3.9509,-3.951,-3.9556,-3.9507,-3.9509,-3.951,-3.9511,-3.9648,-3.965,0,0,0,0,0,0,-3.9483,-3.9484,-3.953,-3.9531,-3.9488,-3.9497,-3.9497,-3.951,-3.951,-3.9508,-3.9496,-3.9492,-3.9506,-3.9508,-3.9511,-3.9577,-3.9509,-3.9511,-3.9513,-3.9646,-3.9649,-3.9651,0,0,0,0,0,0,-3.9482,-3.9487,-3.953,-3.9507,-3.9511,-3.95,-3.9515,-3.9512,-3.9519,-3.951,-3.9508,-3.9506,-3.9504,-3.9507,-3.9545,-3.9576,-3.9512,-3.9514,-3.9643,-3.9647,-3.965,-3.9709,0,0,0,0,0,0,-3.948,-3.9487,-3.9508,-3.9508,-3.9513,-3.9564,-3.9517,-3.9514,-3.9524,-3.9518,-3.9519,-3.9517,-3.9503,-3.9542,-3.9547,-3.9578,-3.9516,-3.964,-3.9645,-3.9649,-3.9704,-3.9714,-3.9722,0,0,0,0,0,-3.9478,-3.9524,-3.951,-3.9515,-3.9539,-3.9566,-3.9569,-3.9552,-3.9526,-3.9547,-3.9542,-3.9517,-3.9572,-3.9546,-3.9552,-3.9584,-3.9638,-3.9644,-3.9649,-3.97,-3.9712,-3.9722,0,0,0,0,0,0,-3.9527,-3.9523,-3.9508,-3.9554,-3.9561,-3.9558,-3.9584,-3.9565,-3.9578,-3.9573,-3.9551,-3.9551,-3.9593,-3.9592,-3.9563,-3.9638,-3.9601,-3.9607,-3.9638,-3.9649,-3.9658,-3.9657,-3.9518,0,0,0,0,0,-3.9544,-3.9567,-3.9561,-3.9603,-3.9608,-3.9596,-3.9607,-3.9593,-3.9599,-3.9601,-3.9598,-3.9604,-3.9623,-3.9636,-3.9652,-3.9703,-3.9703,-3.9728,-3.9737,-3.9745,-3.9751,-3.9779,-3.9791,-3.9668,-3.9668,-3.9668,0,0,-3.9578,-3.9578,-3.9594,-3.9613,-3.9617,-3.9641,-3.9598,-3.9625,-3.9643,-3.9605,-3.9641,-3.9639,-3.9644,-3.9689,-3.9709,-3.969,-3.9785,-3.9751,-3.9757,-3.9759,-3.9786,-3.9797,-3.9808,-3.9671,-3.9671,-3.967,0,0,-3.9652,-3.9655,-3.9691,-3.9696,-3.9702,-3.9694,-3.9703,-3.9703,-3.9701,-3.9736,-3.9709,-3.9729,-3.9762,-3.9767,-3.9774,-3.9852,-3.983,-3.9858,-3.9905,-3.9933,-3.9943,-3.9951,-3.998,-3.9991,-3.9864,-3.9864,-3.9864,0,-3.9693,-3.9729,-3.9711,-3.9741,-3.9751,-3.9719,-3.9755,-3.976,-3.9771,-3.9779,-3.9757,-3.9798,-3.9799,-3.9846,-3.9865,-3.9871,-3.9881,-3.9858,-3.9943,-3.9951,-3.9959,-3.9986,-3.9997,-3.9867,-3.9867,-3.9867,-3.9866,0,-3.978,-3.9806,-3.9834,-3.9847,-3.986,-3.9893,-3.9879,-3.9894,-3.988,-3.9874,-3.9911,-3.9912,-3.9929,-3.9938,-3.9924,-3.9983,-3.9971,-3.9947,-3.9909,-3.9975,-4.0,-4.001,-3.9872,-3.9871,-3.987,-3.9869,0,0,-3.9886,-3.989,-3.9901,-3.9907,-3.9912,-3.9931,-3.9963,-3.998,-3.9994,-4.0003,-4.0029,-4.0058,-4.0036,-4.0044,-4.003,-4.0054,-4.0117,-4.0026,-4.0026,-4.0044,-4.0184,-4.0203,-4.0216,-4.0103,-4.0105,-4.0106,-4.0184,0,-3.996,-4.0015,-4.0,-4.0055,-4.0079,-4.0049,-4.0077,-4.0083,-4.0079,-4.0098,-4.0092,-4.0114,-4.0082,-4.0087,-4.011,-4.0105,-4.0145,-4.0099,-4.0127,-4.0128,-4.0128,-4.0229,-4.0249,-4.0322,-4.0194,-4.0195,-4.0196,0,-4.0054,-4.0068,-4.0126,-4.0129,-4.0138,-4.0163,-4.0179,-4.0197,-4.0204,-4.0199,-4.0209,-4.019,-4.0221,-4.0183,-4.0226,-4.0195,-4.0205,-4.0205,-4.0207,-4.021,-4.0167,-4.0235,-4.0345,-4.0356,-4.0212,-4.021,-4.0209,0,-4.0127,-4.016,-4.0199,-4.0205,-4.0209,-4.0228,-4.023,-4.0235,-4.0247,-4.026,-4.0268,-4.0284,-4.0293,-4.0306,-4.0293,-4.0266,-4.0338,-4.0298,-4.0335,-4.0336,-4.0352,-4.0351,-4.0466,-4.0358,-4.0357,-4.0357,-4.0357,0,-4.0211,-4.0248,-4.0232,-4.0257,-4.0297,-4.0279,-4.032,-4.0319,-4.0323,-4.0347,-4.0321,-4.0344,-4.0324,-4.0345,-4.0334,-4.0372,-4.0376,-4.0373,-4.037,-4.0376,-4.0376,-4.0383,-4.0378,-4.036,-4.0359,-4.0359,-4.0358,0,-4.03,-4.029,-4.0332,-4.0333,-4.0334,-4.0364,-4.0364,-4.0387,-4.0381,-4.0411,-4.0417,-4.0407,-4.0431,-4.0418,-4.0442,-4.0435,-4.0484,-4.0473,-4.0482,-4.048,-4.0518,-4.0515,-4.0642,-4.0658,-4.0538,-4.0539,-4.054,0,-4.0355,-4.0383,-4.0387,-4.0402,-4.0407,-4.043,-4.0442,-4.0426,-4.044,-4.0451,-4.0472,-4.0493,-4.0509,-4.0548,-4.0543,-4.0561,-4.0551,-4.0594,-4.0554,-4.0559,-4.0553,-4.0552,-4.0555,-4.0603,-4.0604,-4.0605,-4.0606,0,-4.0454,-4.0449,-4.0468,-4.0487,-4.0503,-4.0517,-4.0528,-4.0541,-4.0525,-4.0542,-4.0566,-4.0579,-4.0604,-4.0625,-4.0641,-4.0643,-4.0623,-4.0619,-4.0629,-4.0636,-4.064,-4.064,-4.0506,-4.0616,-4.0615,-4.0615,-4.0614,-4.0614,-4.0528,-4.0552,-4.056,-4.0583,-4.059,-4.0602,-4.0623,-4.0621,-4.0641,-4.0661,-4.065,-4.0678,-4.0685,-4.0704,-4.0709,-4.0731,-4.0713,-4.0727,-4.0731,-4.0735,-4.0741,-4.0636,-4.0733,-4.0733,-4.0733,-4.0733,-4.0732,0,-4.0627,-4.0631,-4.0653,-4.067,-4.0689,-4.0669,-4.068,-4.0697,-4.0723,-4.0731,-4.0748,-4.0776,-4.0797,-4.0794,-4.0814,-4.0832,-4.0823,-4.0838,-4.0836,-4.0838,-4.0755,-4.0745,-4.0844,-4.0844,-4.0844,-4.0844,-4.0844,-4.0844,-4.0681,-4.0722,-4.0717,-4.0761,-4.0764,-4.0793,-4.0801,-4.0812,-4.0819,-4.0852,-4.087,-4.0868,-4.0872,-4.0892,-4.091,-4.0909,-4.0918,-4.0936,-4.0931,-4.0854,-4.0843,-4.0833,-4.0823,-4.0938,-4.0938,-4.1013,-4.1013,-4.1014]}]]